Millville, NJ

11:04 AM EST on December 10, 2019 (GMT -0500)
Millville Municipal

Weather History for KMIV - October, 2019

Change the Weather History Date:

Wednesday, October 2, 2019

  Actual Average Record
Temperature  
Mean Temperature 82 °F -  
Max Temperature 97 °F 71 °F 97 °F (2019)
Min Temperature 70 °F 51 °F 32 °F (1997)
Cooling Degree Days 18    
Growing Degree Days 32 (Base 50)    
Moisture  
Dew Point 65 °F    
Average Humidity 63    
Maximum Humidity 90    
Minimum Humidity 31    
Precipitation  
Precipitation 0.00 in - - ()
Sea Level Pressure  
Sea Level Pressure 29.87 in    
Wind  
Wind Speed 7 mph (WSW)    
Max Wind Speed 17 mph    
Max Gust Speed 25 mph    
Visibility 10 miles    
Events      
Averages and records for this station are not official NWS values.
T = Trace of Precipitation, MM = Missing Value Source: NWS Daily Summary

Daily Weather History Graph

Daily Weather History Graph

Search for Another Location

Airport or City:

Astronomy

Oct. 02, 2019 Rise Set
Actual Time 6:57 AM EDT 6:41 PM EDT
Civil Twilight 6:30 AM EDT 7:08 PM EDT
Nautical Twilight 5:59 AM EDT 7:39 PM EDT
Astronomical Twilight 5:27 AM EDT 8:10 PM EDT
Moon 11:18 AM EDT (10/2) 9:35 PM EDT (10/2)
Length of Visible Light 12h 38m
Length of Day
11h 44m
Waxing Crescent, 20% of the Moon is Illuminated
Oct 2
Waxing Crescent
Oct 5
First Quarter
Oct 13
Full
Oct 21
Last Quarter
Oct 27
New

Hourly Weather History & Observations

Time (EDT) Temp. Heat Index Dew Point Humidity Pressure Visibility Wind Dir Wind Speed Gust Speed Precip Events Conditions
12:54 AM 70.0 °F - 66.0 °F 87% 29.94 in 10.0 mi SSW 3.5 mph - N/A   Clear
1:54 AM 70.0 °F - 66.0 °F 87% 29.92 in 10.0 mi SW 3.5 mph - N/A   Clear
2:54 AM 71.1 °F - 66.0 °F 84% 29.91 in 10.0 mi WSW 4.6 mph - N/A   Clear
3:54 AM 71.1 °F - 66.9 °F 87% 29.91 in 10.0 mi WSW 4.6 mph - N/A   Clear
4:54 AM 70.0 °F - 66.9 °F 90% 29.91 in 10.0 mi SW 3.5 mph - N/A   Clear
5:54 AM 71.1 °F - 66.9 °F 87% 29.90 in 10.0 mi WSW 5.8 mph - N/A   Partly Cloudy
6:54 AM 71.1 °F - 66.9 °F 87% 29.91 in 10.0 mi WSW 5.8 mph - N/A   Clear
7:54 AM 72.0 °F - 68.0 °F 87% 29.91 in 10.0 mi WSW 5.8 mph - N/A   Clear
8:54 AM 75.9 °F - 68.0 °F 76% 29.92 in 10.0 mi WSW 8.1 mph - N/A   Mostly Cloudy
9:54 AM 80.1 °F 82.7 °F 68.0 °F 67% 29.90 in 9.0 mi West 8.1 mph - N/A   Clear
10:54 AM 84.9 °F 88.2 °F 68.0 °F 57% 29.89 in 10.0 mi WSW 8.1 mph - N/A   Clear
11:54 AM 88.0 °F 90.7 °F 66.9 °F 49% 29.86 in 10.0 mi West 12.7 mph - N/A   Partly Cloudy
12:54 PM 91.0 °F 93.8 °F 66.0 °F 44% 29.85 in 10.0 mi WSW 8.1 mph - N/A   Partly Cloudy
1:54 PM 95.0 °F 95.6 °F 62.1 °F 33% 29.82 in 10.0 mi West 17.3 mph 23.0 mph N/A   Clear
2:54 PM 95.0 °F 94.8 °F 60.1 °F 31% 29.81 in 10.0 mi West 16.1 mph 25.3 mph N/A   Clear
3:54 PM 93.0 °F 93.0 °F 61.0 °F 34% 29.80 in 10.0 mi West 15.0 mph - N/A   Clear
4:54 PM 93.0 °F 93.8 °F 62.1 °F 36% 29.79 in 10.0 mi WSW 11.5 mph - N/A   Clear
5:54 PM 89.1 °F 89.3 °F 62.1 °F 40% 29.80 in 10.0 mi West 6.9 mph - N/A   Clear
6:54 PM 86.0 °F 86.3 °F 62.1 °F 44% 29.81 in 10.0 mi WSW 6.9 mph - N/A   Clear
7:54 PM 82.9 °F 84.0 °F 63.0 °F 51% 29.83 in 10.0 mi West 5.8 mph - N/A   Clear
8:54 PM 78.1 °F - 64.9 °F 64% 29.85 in 10.0 mi West 3.5 mph - N/A   Clear
9:54 PM 75.0 °F - 66.0 °F 73% 29.86 in 10.0 mi West 3.5 mph - N/A   Clear
10:54 PM 81.0 °F 82.7 °F 64.9 °F 58% 29.89 in 10.0 mi North 10.4 mph - N/A   Overcast
11:54 PM 79.0 °F - 66.0 °F 64% 29.91 in 10.0 mi NE 11.5 mph 19.6 mph N/A   Overcast